Temperature
-6 -5 -5 -5 -5 -5 -6 -6 -6 -6 -6 -5 -6 -6 -5 -5 -5 -5 -5 -5 -5 -4 -4 -3 -3 -3 -2 -2 -1 -1 -0 0 1 1 2 3 3 3 4 4 4 5 5 5
-6 -5 -5 -5 -5 -5 -5 -6 -6 -6 -6 -5 -5 -5 -5 -5 -6 -6 -6 -6 -5 -5 -5 -4 -4 -3 -3 -2 -2 -1 -1 -0 0 1 1 2 3 3 3 4 4 4 4 4
-6 -6 -6 -6 -6 -6 -6 -6 -6 -6 -6 -6 -6 -6 -6 -6 -6 -6 -6 -6 -6 -5 -5 -5 -4 -4 -4 -3 -2 -2 -1 -1 -1 -0 0 1 2 2 2 3 3 3 4 4
-7 -7 -6 -5 -6 -6 -6 -6 -7 -6 -6 -6 -6 -6 -6 -6 -6 -6 -6 -6 -6 -6 -5 -5 -5 -4 -4 -3 -3 -2 -2 -2 -1 -1 -0 0 1 1 2 2 2 3 3 3
-7 -7 -7 -6 -6 -7 -7 -7 -7 -7 -7 -6 -6 -7 -6 -6 -6 -7 -7 -7 -6 -6 -6 -6 -5 -5 -4 -4 -3 -3 -3 -2 -2 -2 -1 -0 0 1 1 1 2 2 2 3
-8 -7 -6 -5 -6 -6 -7 -7 -7 -7 -7 -7 -7 -8 -7 -6 -7 -7 -7 -7 -7 -6 -6 -6 -5 -5 -5 -5 -4 -4 -3 -3 -2 -2 -2 -1 -1 -0 0 1 1 1 1 2
-9 -8 -7 -7 -7 -6 -7 -6 -6 -6 -7 -7 -8 -8 -7 -7 -7 -7 -7 -7 -7 -7 -6 -6 -6 -6 -5 -5 -5 -4 -4 -3 -3 -2 -2 -2 -1 -0 -0 0 0 1 1 1
-9 -9 -7 -7 -8 -7 -7 -6 -6 -6 -6 -7 -7 -7 -7 -7 -8 -7 -7 -7 -7 -7 -7 -6 -6 -6 -6 -5 -5 -5 -4 -4 -3 -3 -2 -2 -1 -1 -1 -0 -0 0 0 1
-8 -7 -6 -6 -6 -5 -6 -6 -6 -6 -7 -7 -8 -8 -8 -8 -8 -8 -8 -8 -8 -8 -7 -7 -6 -6 -6 -6 -5 -5 -4 -4 -4 -3 -3 -2 -2 -2 -1 -1 -1 -1 -0 -0
-9 -8 -7 -6 -6 -6 -6 -6 -6 -7 -7 -8 -8 -8 -8 -8 -8 -8 -8 -8 -8 -8 -7 -7 -7 -7 -7 -6 -6 -5 -5 -5 -4 -4 -3 -3 -3 -2 -2 -2 -2 -1 -1 -1
-9 -9 -8 -6 -6 -6 -6 -7 -7 -7 -7 -8 -8 -8 -8 -8 -8 -8 -8 -8 -8 -8 -8 -7 -7 -7 -7 -7 -6 -6 -5 -5 -5 -4 -4 -4 -3 -3 -3 -2 -2 -2 -2 -2
-8 -7 -8 -6 -6 -6 -7 -7 -7 -8 -8 -8 -8 -9 -9 -9 -8 -8 -8 -8 -8 -8 -8 -8 -8 -7 -7 -7 -7 -6 -6 -6 -6 -5 -5 -5 -4 -4 -4 -3 -3 -3 -2 -2
-6 -6 -6 -6 -7 -7 -7 -8 -8 -8 -8 -8 -9 -9 -9 -9 -9 -9 -9 -8 -8 -8 -8 -8 -8 -8 -8 -7 -7 -7 -7 -7 -6 -6 -6 -6 -5 -5 -4 -4 -4 -3 -3 -3
-7 -7 -7 -7 -7 -8 -8 -8 -8 -8 -9 -9 -9 -9 -9 -9 -9 -9 -9 -9 -9 -9 -9 -9 -8 -8 -8 -8 -8 -7 -7 -7 -7 -7 -7 -7 -6 -6 -5 -5 -4 -4 -4 -3
-7 -7 -8 -8 -8 -8 -8 -8 -9 -9 -9 -9 -9 -9 -9 -9 -9 -9 -9 -9 -9 -9 -9 -9 -9 -8 -8 -8 -8 -8 -8 -8 -8 -8 -7 -7 -7 -6 -6 -6 -5 -5 -5 -4
-8 -8 -8 -8 -8 -8 -9 -9 -9 -9 -9 -10 -10 -10 -10 -10 -10 -9 -9 -9 -9 -9 -9 -9 -9 -9 -9 -9 -8 -8 -8 -8 -8 -8 -8 -8 -7 -7 -7 -6 -6 -6 -5 -5
-8 -9 -9 -9 -9 -9 -9 -9 -9 -10 -10 -10 -10 -10 -10 -10 -10 -10 -10 -10 -10 -10 -9 -9 -9 -9 -9 -9 -9 -9 -9 -9 -8 -8 -8 -8 -8 -8 -7 -7 -7 -7 -6 -6
-8 -8 -9 -9 -9 -9 -9 -9 -10 -10 -10 -10 -10 -10 -10 -10 -10 -10 -10 -10 -10 -10 -10 -10 -10 -10 -9 -9 -9 -9 -9 -9 -9 -9 -9 -9 -8 -8 -8 -8 -8 -7 -7 -7
-8 -9 -9 -9 -9 -9 -10 -10 -10 -10 -10 -10 -10 -10 -10 -11 -11 -10 -10 -10 -10 -10 -10 -10 -10 -10 -10 -10 -10 -10 -10 -9 -9 -9 -9 -9 -9 -9 -8 -8 -8 -8 -7 -7
-9 -9 -9 -9 -9 -10 -10 -10 -10 -10 -10 -10 -11 -11 -11 -11 -11 -11 -11 -11 -11 -11 -11 -10 -10 -10 -10 -10 -10 -10 -10 -10 -10 -10 -9 -9 -9 -9 -9 -9 -8 -8 -8 -8
-9 -9 -9 -9 -10 -10 -10 -10 -10 -10 -11 -11 -11 -11 -11 -11 -11 -11 -11 -11 -11 -11 -11 -11 -11 -11 -11 -11 -11 -10 -10 -10 -10 -10 -10 -10 -10 -10 -9 -9 -9 -9 -8 -8
-9 -9 -10 -10 -10 -10 -10 -11 -11 -11 -11 -11 -11 -11 -11 -11 -11 -11 -11 -12 -11 -11 -11 -11 -11 -11 -11 -11 -11 -11 -11 -11 -10 -10 -10 -10 -10 -10 -10 -9 -9 -9 -9 -9
-10 -10 -10 -10 -10 -10 -11 -11 -11 -11 -11 -11 -11 -12 -12 -12 -12 -12 -12 -12 -12 -12 -12 -12 -11 -11 -11 -11 -11 -11 -11 -11 -11 -11 -11 -10 -10 -10 -10 -10 -10 -9 -9 -9
-10 -10 -10 -11 -11 -11 -11 -11 -11 -11 -12 -12 -12 -12 -12 -12 -12 -12 -12 -12 -12 -12 -12 -12 -12 -12 -12 -11 -11 -11 -11 -11 -11 -11 -11 -11 -11 -10 -10 -10 -10 -10 -10 -9
-10 -10 -11 -11 -11 -11 -11 -11 -12 -12 -12 -12 -12 -12 -12 -12 -12 -12 -12 -12 -12 -12 -12 -12 -12 -12 -12 -12 -12 -12 -12 -12 -12 -11 -11 -11 -11 -11 -11 -10 -10 -10 -10 -10
-11 -11 -11 -11 -11 -11 -12 -12 -12 -12 -12 -12 -12 -12 -12 -12 -12 -12 -12 -12 -12 -12 -12 -12 -12 -12 -12 -12 -12 -12 -12 -12 -12 -12 -11 -11 -11 -11 -11 -11 -11 -10 -10 -10
-11 -11 -11 -11 -12 -12 -12 -12 -12 -12 -12 -12 -12 -13 -13 -13 -13 -13 -13 -13 -13 -13 -13 -13 -13 -12 -12 -12 -12 -12 -12 -12 -12 -12 -12 -12 -11 -11 -11 -11 -11 -11 -10 -10
Wind_Speed
6 6 4 5 6 3 3 5 6 6 7 9 7 7 7 6 7 7 8 9 9 9 8 9 9 8 8 8 7 6 5 5 5 5 4 3 2 2 2 3 4 4 5 5
4 4 4 6 7 5 5 5 6 6 9 7 6 5 6 7 8 8 8 9 9 9 9 9 9 9 9 8 8 6 5 5 5 5 5 3 2 2 2 3 3 4 4 5
4 5 5 6 5 5 3 3 4 7 7 5 5 6 7 7 7 8 8 9 9 9 9 9 9 8 8 8 8 6 6 5 5 5 5 4 3 2 3 3 3 3 4 4
2 4 4 6 2 3 4 5 5 6 5 4 5 6 5 4 5 7 8 9 10 9 9 9 8 8 8 8 7 6 6 6 5 5 4 4 3 3 3 3 3 3 4 4
1 2 7 6 2 2 3 6 4 4 6 5 6 5 5 3 3 5 7 8 8 8 8 8 8 8 8 8 7 6 6 6 6 5 5 4 4 4 3 3 3 3 3 4
2 2 5 5 2 1 2 5 3 3 4 5 4 4 6 6 7 8 8 8 8 8 8 8 9 8 8 8 7 7 7 7 6 5 4 5 5 4 3 3 3 3 3 3
4 5 7 5 2 2 2 5 2 3 4 3 3 5 7 8 8 8 8 8 8 8 7 8 8 8 8 8 8 8 7 7 5 5 4 4 4 3 3 3 3 2 2 2
4 4 7 3 3 4 6 3 2 3 4 4 5 6 7 8 8 8 8 8 8 7 8 8 8 7 8 8 9 8 7 6 5 5 4 3 2 2 2 3 3 3 2 1
8 8 4 4 5 4 2 2 3 3 4 4 5 7 8 8 8 8 8 8 7 7 8 8 8 7 8 9 9 8 6 5 5 5 3 3 2 1 1 2 2 2 2 2
5 8 6 6 5 3 3 3 3 3 4 4 6 7 7 8 8 8 8 7 7 7 8 9 8 8 7 9 8 7 5 5 4 4 4 3 2 1 1 1 2 2 2 2
6 7 6 5 5 5 4 3 3 4 4 5 5 6 6 7 7 7 8 7 6 6 7 8 8 8 9 8 6 5 5 5 4 3 3 3 3 2 2 1 2 3 3 2
7 6 5 5 4 3 3 4 4 4 5 5 5 6 6 6 6 6 7 7 6 6 7 8 8 8 8 7 5 4 5 5 4 3 3 3 2 3 4 2 1 1 1 1
5 3 4 4 3 2 3 4 4 4 5 5 5 5 5 6 5 5 6 6 6 7 7 7 7 8 8 7 5 4 4 4 3 3 3 3 2 2 2 3 3 2 2 2
3 1 2 3 3 3 3 3 3 3 3 3 4 4 4 5 5 6 6 7 6 6 6 6 7 7 7 6 5 5 4 5 4 3 3 3 2 2 1 1 2 2 2 3
4 3 4 3 2 2 2 2 2 3 3 4 3 4 4 5 6 6 7 6 6 5 5 6 6 7 7 6 5 5 4 3 3 3 3 3 3 2 2 1 1 1 1 2
3 2 2 2 3 3 3 3 3 4 4 4 4 4 5 5 5 6 6 5 5 6 6 6 6 7 6 6 5 4 4 6 5 3 3 3 3 2 2 1 1 1 1 1
1 2 3 4 4 4 4 4 4 4 4 4 5 5 4 4 4 5 5 5 5 5 6 6 6 6 6 5 4 3 3 4 6 4 3 3 3 3 2 1 1 1 1 1
5 5 5 5 4 4 5 4 4 4 4 4 4 3 3 4 4 5 6 6 5 5 6 6 6 6 5 5 4 3 3 3 3 3 3 2 2 2 2 2 1 1 1 2
3 3 3 4 3 3 4 4 4 4 3 3 3 3 4 4 4 5 5 5 5 6 6 6 8 6 5 5 5 3 3 3 3 3 2 3 3 2 2 2 2 2 2 1
2 2 2 2 2 2 3 3 3 3 3 3 3 3 4 4 4 4 4 4 4 5 6 7 6 5 5 4 5 2 2 3 3 3 2 2 2 2 2 2 2 2 2 1
2 2 2 2 3 3 3 2 2 3 3 3 3 4 4 5 4 4 4 5 5 5 6 7 5 4 5 4 4 2 2 2 2 2 2 2 2 2 2 2 2 2 2 2
2 2 3 2 2 3 3 2 2 3 3 3 3 3 4 5 5 4 4 4 5 8 5 4 4 6 6 5 2 2 2 2 2 2 2 2 2 2 2 2 2 2 2 2
3 3 3 3 3 3 3 3 2 2 3 3 4 4 4 4 4 4 5 4 4 7 5 4 6 8 7 3 2 2 2 2 2 2 2 2 2 2 2 2 2 2 2 2
3 3 3 2 2 2 3 4 3 3 3 4 4 4 4 4 4 4 4 7 8 8 4 6 8 8 6 2 2 2 2 3 3 2 3 3 2 2 2 2 2 3 3 3
2 2 2 1 2 3 3 3 3 3 3 3 4 4 3 3 4 4 4 5 7 7 5 7 9 8 5 3 2 2 2 3 3 3 2 3 3 3 3 3 3 3 3 3
2 2 2 3 3 2 2 2 2 3 3 3 4 4 3 3 3 3 3 4 5 6 5 4 5 5 4 3 3 3 3 4 4 3 3 3 3 3 3 3 4 3 4 4
2 2 2 2 2 2 2 2 2 3 3 3 4 4 3 3 3 3 4 4 4 4 4 4 4 3 3 3 3 3 3 3 4 4 4 3 3 3 4 4 4 4 5 5
Wind_Direction
255 264 268 276 281 267 214 214 220 252 262 281 296 301 307 318 322 329 336 338 340 340 337 336 336 335 331 326 319 311 306 304 301 303 291 281 261 256 247 221 206 197 192 195
288 272 277 294 290 262 245 238 239 265 278 277 288 303 314 322 330 333 331 332 333 335 335 334 331 328 326 322 320 311 294 288 297 301 294 287 271 260 256 235 210 196 194 194
280 309 329 298 266 226 231 227 215 245 266 304 319 322 322 324 328 325 327 327 328 328 326 324 322 320 317 314 318 317 307 295 295 292 285 283 273 262 254 240 215 201 203 200
291 3 269 253 227 201 229 259 242 257 281 297 294 303 303 306 312 321 328 329 327 325 324 322 322 322 320 317 317 314 309 305 300 288 279 282 269 255 256 240 214 204 208 209
206 274 278 288 252 199 220 281 249 244 280 298 304 316 314 313 325 317 316 317 316 317 315 320 323 323 322 322 322 322 317 308 303 287 277 275 263 255 252 235 221 208 211 202
167 223 255 262 267 238 112 288 254 226 275 303 332 320 299 318 323 318 317 317 317 319 322 325 326 327 326 325 325 320 313 308 302 287 274 267 259 254 248 227 218 212 217 205
207 234 266 264 266 112 164 265 248 217 258 272 252 251 279 305 311 314 316 317 320 321 321 321 323 327 326 326 321 315 315 317 309 294 278 270 265 254 234 217 208 202 200 213
179 212 258 230 144 185 227 262 233 247 253 258 268 285 296 304 309 316 318 320 323 323 319 320 326 327 324 320 317 320 322 319 315 307 296 294 282 266 229 201 197 193 187 216
196 218 243 195 210 235 215 235 256 255 269 271 281 289 298 304 308 311 314 317 320 319 318 321 327 328 321 316 320 322 324 326 323 323 325 324 309 281 251 205 190 196 192 201
245 260 256 250 251 255 233 242 256 255 268 272 277 285 293 301 309 313 314 316 321 323 322 321 326 326 319 319 324 326 332 332 331 337 342 344 333 309 263 220 204 201 202 205
252 273 296 277 247 250 250 256 271 277 271 267 273 286 290 297 303 307 312 316 320 319 317 318 324 326 327 328 335 344 344 343 341 342 342 344 340 324 294 258 222 215 215 211
233 232 219 261 264 241 242 258 260 272 285 284 276 282 290 293 296 302 308 315 319 319 320 319 323 326 328 334 345 349 346 346 346 345 344 344 344 344 349 313 321 306 261 227
233 242 228 258 269 244 244 260 265 264 270 286 292 288 292 295 300 306 311 314 312 310 311 316 322 326 329 336 341 347 340 338 339 342 343 343 345 347 351 5 24 41 48 38
239 253 269 260 265 262 261 272 280 288 288 287 294 302 304 306 308 310 308 304 303 306 312 317 321 324 328 333 338 340 337 337 341 340 336 334 334 332 333 352 359 9 25 45
243 231 238 262 274 282 284 289 295 297 303 307 308 309 309 310 309 309 308 309 311 314 316 319 322 323 329 332 335 336 335 336 337 338 336 335 338 338 342 354 7 6 21 32
269 265 248 258 270 279 281 269 269 278 287 292 298 300 298 299 305 313 319 325 326 324 321 322 322 320 327 333 334 335 334 337 343 343 342 347 353 353 349 354 2 360 4 8
215 259 260 269 271 274 270 264 258 268 275 280 286 295 304 310 316 319 323 326 320 314 314 317 318 322 330 333 331 327 329 334 341 342 343 345 353 355 354 356 356 358 342 351
227 237 241 244 253 264 274 275 271 270 273 276 287 297 302 303 303 307 313 322 327 325 322 320 319 325 330 331 332 327 327 330 334 335 339 347 357 355 352 353 358 359 350 5
245 248 255 257 253 251 262 271 275 276 284 289 288 287 289 292 297 304 315 325 323 320 321 323 329 335 328 327 335 329 332 333 335 336 338 346 356 354 351 349 355 360 349 354
256 260 265 274 279 272 276 283 283 289 293 297 300 304 306 307 309 314 317 309 296 291 300 315 324 324 320 322 334 334 332 331 331 333 335 338 340 340 341 344 349 349 341 339
279 284 288 291 295 294 280 274 278 287 295 294 289 293 298 307 312 314 314 310 308 307 311 320 326 318 317 327 332 334 328 326 327 330 332 331 336 335 339 342 338 332 326 323
270 273 276 282 289 299 299 291 282 286 297 299 297 300 305 310 314 312 300 290 304 317 324 319 316 316 327 332 333 329 322 322 324 325 326 327 325 321 325 328 321 316 318 317
268 268 271 273 275 285 302 300 291 289 290 293 294 293 291 292 295 298 303 306 310 316 326 316 317 325 335 349 350 336 328 323 318 315 314 314 311 306 306 309 306 307 308 311
267 271 275 280 288 296 298 298 300 296 290 290 289 287 289 296 296 282 281 306 318 320 323 321 327 331 343 0 339 326 318 312 309 309 311 311 309 305 301 299 300 302 301 300
264 267 269 274 278 279 285 298 308 307 305 304 303 300 293 281 279 293 299 305 314 322 322 322 327 333 344 335 325 317 312 304 303 309 304 305 304 303 301 300 296 295 293 291
262 264 264 259 261 272 285 292 298 302 304 305 307 305 303 302 297 300 305 308 310 319 323 317 319 326 327 321 316 311 307 308 315 315 308 303 300 299 301 303 300 294 291 289
274 273 275 285 285 280 281 282 286 290 291 291 298 304 308 309 308 309 309 312 313 314 312 312 314 315 314 313 311 309 306 303 301 301 299 296 295 295 295 294 293 291 289 288
Height
1544 1540 1539 1537 1534 1534 1535 1535 1535 1530 1527 1519 1517 1515 1512 1509 1506 1503 1500 1497 1494 1491 1488 1485 1483 1481 1479 1477 1477 1476 1476 1476 1476 1476 1477 1478 1479 1481 1483 1486 1488 1490 1493 1495
1543 1538 1536 1534 1530 1530 1530 1531 1530 1527 1523 1516 1515 1513 1510 1507 1504 1502 1499 1496 1493 1490 1487 1484 1481 1479 1477 1475 1473 1473 1472 1472 1472 1473 1473 1473 1475 1477 1479 1481 1483 1486 1488 1491
1545 1540 1537 1536 1529 1528 1528 1527 1526 1524 1520 1515 1513 1511 1509 1506 1503 1501 1498 1495 1492 1488 1485 1483 1480 1477 1474 1472 1470 1469 1469 1469 1469 1469 1469 1469 1471 1473 1474 1476 1478 1480 1483 1486
1546 1545 1542 1530 1525 1525 1525 1522 1521 1519 1517 1515 1513 1510 1508 1505 1503 1500 1497 1493 1490 1487 1484 1481 1478 1475 1472 1470 1468 1466 1465 1464 1465 1465 1465 1466 1467 1468 1470 1472 1474 1476 1478 1481
1548 1548 1539 1527 1524 1524 1525 1521 1518 1517 1515 1513 1511 1508 1504 1503 1501 1499 1496 1492 1488 1485 1482 1479 1476 1473 1470 1467 1465 1463 1461 1461 1461 1461 1461 1462 1463 1464 1466 1467 1469 1471 1474 1476
1550 1546 1537 1525 1521 1520 1523 1521 1514 1513 1513 1511 1510 1510 1505 1502 1499 1496 1493 1490 1486 1483 1479 1476 1473 1470 1467 1464 1462 1460 1459 1457 1457 1457 1457 1458 1459 1460 1462 1464 1466 1468 1470 1472
1549 1546 1533 1522 1520 1520 1526 1518 1512 1511 1510 1510 1508 1507 1503 1499 1496 1494 1490 1487 1483 1480 1476 1473 1470 1467 1464 1461 1459 1457 1455 1454 1454 1454 1454 1455 1455 1457 1458 1460 1462 1464 1466 1468
1547 1546 1533 1518 1518 1519 1516 1511 1510 1509 1508 1507 1505 1502 1500 1497 1493 1490 1487 1483 1480 1477 1473 1470 1467 1464 1461 1458 1456 1454 1453 1451 1451 1451 1451 1451 1452 1454 1455 1457 1458 1460 1462 1464
1531 1525 1516 1514 1512 1511 1510 1509 1508 1507 1505 1504 1502 1499 1496 1493 1490 1487 1484 1480 1477 1474 1470 1467 1465 1462 1458 1456 1454 1452 1450 1448 1448 1448 1448 1449 1449 1450 1452 1453 1455 1456 1458 1460
1523 1514 1511 1510 1509 1509 1508 1507 1506 1504 1503 1501 1498 1495 1493 1489 1486 1483 1480 1477 1474 1471 1467 1464 1462 1459 1457 1454 1452 1449 1447 1446 1445 1445 1445 1446 1447 1447 1449 1450 1451 1453 1455 1457
1518 1511 1508 1506 1506 1505 1505 1504 1502 1501 1499 1497 1495 1492 1489 1486 1483 1480 1477 1474 1472 1468 1465 1462 1460 1457 1454 1452 1450 1448 1446 1445 1444 1444 1443 1444 1444 1445 1446 1447 1448 1450 1452 1454
1510 1506 1506 1503 1503 1503 1502 1500 1499 1498 1496 1494 1492 1489 1486 1483 1481 1478 1475 1472 1469 1466 1464 1461 1458 1455 1453 1450 1448 1446 1445 1444 1443 1442 1442 1442 1442 1443 1444 1445 1446 1448 1450 1451
1503 1502 1502 1501 1500 1500 1499 1497 1496 1495 1493 1491 1488 1486 1484 1481 1478 1476 1473 1470 1468 1465 1462 1459 1456 1454 1451 1449 1447 1446 1444 1443 1442 1441 1440 1440 1440 1440 1441 1442 1444 1445 1447 1448
1500 1500 1499 1498 1497 1497 1496 1494 1493 1491 1490 1488 1486 1483 1481 1478 1476 1473 1471 1468 1466 1463 1461 1458 1455 1453 1451 1448 1447 1445 1444 1442 1441 1441 1440 1440 1439 1439 1439 1440 1441 1442 1445 1446
1497 1497 1497 1496 1495 1494 1493 1491 1490 1488 1486 1484 1483 1480 1478 1476 1473 1471 1468 1466 1464 1461 1459 1456 1454 1452 1450 1448 1446 1444 1443 1441 1441 1440 1439 1438 1438 1438 1438 1439 1440 1441 1442 1443
1494 1494 1493 1493 1492 1491 1489 1488 1486 1485 1483 1481 1480 1478 1476 1474 1471 1469 1466 1464 1461 1459 1457 1455 1453 1451 1449 1447 1445 1444 1442 1441 1440 1439 1438 1438 1437 1437 1437 1438 1439 1440 1440 1441
1491 1490 1490 1489 1488 1487 1486 1485 1484 1482 1480 1479 1477 1475 1473 1471 1469 1467 1464 1462 1460 1458 1456 1454 1452 1450 1448 1446 1445 1443 1441 1440 1439 1438 1438 1437 1436 1436 1437 1437 1437 1438 1439 1440
1489 1488 1487 1486 1485 1484 1483 1482 1480 1479 1477 1476 1474 1472 1470 1468 1466 1464 1463 1460 1458 1456 1454 1452 1450 1448 1447 1445 1443 1442 1441 1439 1438 1438 1437 1436 1436 1436 1436 1436 1437 1437 1438 1439
1486 1485 1485 1484 1482 1481 1480 1478 1477 1476 1474 1473 1471 1469 1468 1466 1464 1462 1460 1458 1456 1454 1453 1451 1449 1447 1445 1444 1442 1441 1440 1439 1438 1437 1436 1436 1436 1436 1435 1435 1436 1436 1437 1437
1483 1483 1482 1481 1480 1478 1477 1476 1474 1473 1472 1470 1468 1467 1465 1464 1462 1460 1458 1456 1455 1453 1451 1449 1447 1445 1444 1442 1441 1440 1439 1438 1437 1436 1435 1435 1435 1435 1434 1434 1435 1435 1435 1436
1480 1480 1479 1478 1477 1476 1475 1473 1472 1470 1469 1468 1466 1464 1463 1461 1460 1458 1456 1454 1453 1451 1449 1448 1446 1444 1443 1441 1440 1439 1438 1437 1436 1435 1435 1434 1434 1434 1434 1433 1434 1434 1434 1434
1478 1477 1477 1475 1474 1473 1472 1471 1470 1468 1467 1465 1464 1462 1461 1459 1457 1456 1454 1453 1452 1450 1448 1446 1444 1443 1442 1440 1439 1438 1437 1436 1435 1434 1434 1433 1433 1433 1433 1433 1433 1433 1433 1433
1476 1475 1474 1473 1472 1471 1469 1468 1467 1466 1464 1463 1461 1460 1458 1457 1455 1454 1452 1451 1449 1448 1446 1444 1443 1442 1440 1439 1437 1436 1435 1434 1434 1433 1432 1432 1432 1431 1431 1431 1431 1431 1430 1430
1473 1472 1471 1470 1469 1468 1467 1466 1465 1463 1462 1461 1459 1458 1457 1455 1453 1452 1450 1449 1447 1446 1444 1443 1442 1440 1439 1437 1436 1435 1434 1433 1432 1432 1431 1431 1430 1430 1429 1429 1429 1429 1428 1428
1470 1470 1469 1468 1467 1466 1465 1463 1462 1461 1460 1458 1457 1456 1454 1453 1451 1450 1448 1447 1445 1444 1442 1441 1440 1438 1437 1436 1434 1433 1433 1432 1431 1430 1430 1429 1428 1428 1428 1427 1427 1427 1426 1426
1468 1467 1466 1465 1465 1463 1462 1461 1460 1458 1457 1456 1454 1453 1452 1451 1449 1448 1446 1445 1443 1442 1440 1439 1437 1436 1435 1434 1433 1432 1431 1430 1429 1428 1428 1427 1426 1426 1425 1425 1425 1424 1424 1424
1465 1464 1464 1463 1462 1461 1460 1459 1457 1456 1455 1453 1452 1451 1450 1448 1447 1445 1444 1442 1441 1439 1438 1436 1435 1434 1432 1431 1430 1429 1429 1428 1427 1426 1425 1425 1424 1424 1423 1422 1422 1422 1421 1421